OPS 4682 DEB, 19113

Orbit data source: Space-Track

OPS 4682 DEB, 19113 is space debris in LEO originally from a launch on Sat, 03 Apr 1965 UTC launched from the Air Force Western Test Range (AFWTR). Debris objects in space refer to the collection of defunct objects orbiting the Earth. Examples of debris include non-operational satellites, rocket bodies, and fragments generated from explosions, collisions, or faulty payload assembly.

Loading next visibility...
Identifier
19113, 1965-027AQ
Orbit
LEO
Country
Flag of USUS
Related business
Manufacturer
Unknown
Mission
Spacecraft
Bus & Motor
Unknown
Mass
Unknown
Launch date (UTC)
1965-04-03 (61 years ago)
Launch vehicle
Unknown
Launch site
Air Force Western Test Range (AFWTR)
Object type
Payload
Rocket body
Debris
Shape & HBR
Unknown shape, 0.1 m
Radar Cross Section
Small (<0.1 m²)

Expand to show TLE details & history
Last TLE update: 1 day ago

TLE from 1 day ago
0 OPS 4682 DEB
1 19113U 65027AQ  26104.99686325 -.00000033  00000-0 -12236-3 0  9991
2 19113  90.2535  12.5745 0029727 236.3800 141.4688 13.06178667626713
Epoch: 2026-04-14T23:55Z
TLE epoch observation values (Epoch: 2026-04-14T23:55:28.984Z)
Latitude
18.05086°
Longitude
170.45644°
Altitude
1,258.066 km
Speed
7.219 km/s
True Right ascension
00h 49m 58s
True Declination
17° 57' 23"
Sunlit
Object was in daylight at epoch
Visualization orbit readout
Latitude
Unknown
Longitude
Unknown
Altitude
Unknown
Speed
Unknown
Apparent Right ascension
Unknown
Apparent Declination
Unknown
Sunlit
N/A
Visualization observer readout
Local Sidereal Time
18:06:07
Azimuth
Unknown
Elevation
Unknown
Doppler factor
Unknown
Orbital elements
Apogee altitude
1,257.723 km
Perigee altitude
1,212.46 km
Semi-major axis
7,613.229 km
Eccentricity
0.00297
Inclination
90.2535°
RAAN
12.5745°
Arg. of periapsis
236.38°
True anomaly
141.68039°
Mean anomaly
141.4688°
Eccentric anomaly
141.57465°
Mean motion
3.26731 °/min
Orbital period
110.18 mins
BSTAR
-0.00012236
Loading maneuver chart data...
Computing Atmospheric mass density...
Loading historical data...
Loading historical data...
Loading historical data...
Loading historical data...
Loading historical data...
Loading historical data...
Loading historical data...

Documentation

Showing up to 5 results
|